Weather History for Melbourne, FL

Change the Weather History Date:

Sunday, October 7, 2012

  Actual Average Record
Temperature  
Mean Temperature 78 °F 78 °F  
Max Temperature 86 °F 86 °F 93 °F (2009)
Min Temperature 70 °F 70 °F 55 °F (1964)
Degree Days  
Heating Degree Days 0 0  
Month to date heating degree days 0 0  
Since 1 July heating degree days 0 0  
Cooling Degree Days 13 13  
Month to date cooling degree days 114 95  
Year to date cooling degree days 3088 2787  
Growing Degree Days 28 (Base 50)    
Moisture  
Dew Point 73 °F    
Average Humidity 83    
Maximum Humidity 100    
Minimum Humidity 65    
Precipitation  
Precipitation 0.00 in 0.20 in 2.91 in (2008)
Month to date precipitation 0.83 1.44  
Year to date precipitation 34.70 42.93  
Sea Level Pressure  
Sea Level Pressure 29.96 in    
Wind  
Wind Speed 5 mph (NE)    
Max Wind Speed 13 mph    
Max Gust Speed 16 mph    
Visibility 9 miles    
Events      
T = Trace of Precipitation, MM = Missing Value Source: NWS Daily Summary

Daily Weather History Graph

Daily Weather History Graph

Search for Another Location

Airport:

Trip Planner

Search our weather history database for the weather conditions in past years. The results will help you decide how hot, cold, wet, or windy it might be!

Date:

Astronomy

Oct. 07, 2012 Rise Set
Actual Time 7:18 AM EDT 7:01 PM EDT
Civil Twilight 6:55 AM EDT 7:24 PM EDT
Nautical Twilight 6:28 AM EDT 7:51 PM EDT
Astronomical Twilight 6:00 AM EDT 8:19 PM EDT
Moon No Moon Rise 1:34 PM EDT (10/7)
Length of Visible Light 12h 29m
Length of Day
11h 42m
Waning Gibbous, 56% of the Moon is Illuminated
Oct 7
Waning Gibbous
Oct 8
Last Quarter
Oct 15
New
Oct 21
First Quarter
Oct 29
Full

Hourly Weather History & Observations

Time (EDT) Temp. Heat Index Dew Point Humidity Pressure Visibility Wind Dir Wind Speed Gust Speed Precip Events Conditions
1:53 AM 73.0 °F - 72.0 °F 96% 29.95 in 10.0 mi WSW 3.5 mph - N/A   Clear
2:53 AM 72.0 °F - 72.0 °F 100% 29.94 in 10.0 mi Calm Calm - N/A   Clear
3:53 AM 72.0 °F - 72.0 °F 100% 29.92 in 10.0 mi Calm Calm - N/A   Clear
4:49 AM 71.6 °F - 71.6 °F 100% 29.92 in 2.0 mi WNW 3.5 mph - N/A   Partly Cloudy
4:53 AM 71.1 °F - 71.1 °F 100% 29.93 in 0.8 mi West 3.5 mph - N/A   Mist
5:04 AM 71.6 °F - 71.6 °F 100% 29.93 in 1.2 mi WNW 3.5 mph - N/A   Partly Cloudy
5:08 AM 71.6 °F - 71.6 °F 100% 29.93 in 3.0 mi WNW 3.5 mph - N/A   Partly Cloudy
5:53 AM 71.1 °F - 71.1 °F 100% 29.94 in 10.0 mi NW 4.6 mph - N/A   Clear
6:53 AM 71.1 °F - 71.1 °F 100% 29.95 in 10.0 mi NNW 4.6 mph - N/A   Clear
7:53 AM 73.0 °F - 72.0 °F 96% 29.95 in 10.0 mi NNW 4.6 mph - N/A   Clear
8:53 AM 78.1 °F - 75.0 °F 90% 29.97 in 10.0 mi North 4.6 mph - N/A   Clear
9:53 AM 80.1 °F 85.4 °F 75.9 °F 87% 29.99 in 10.0 mi NNE 5.8 mph - N/A   Clear
10:53 AM 82.0 °F 88.6 °F 75.0 °F 79% 29.99 in 10.0 mi NE 6.9 mph - N/A   Scattered Clouds
11:53 AM 84.0 °F 91.9 °F 75.0 °F 74% 29.99 in 10.0 mi NE 8.1 mph - N/A   Mostly Cloudy
12:53 PM 82.9 °F 90.2 °F 75.0 °F 77% 29.99 in 10.0 mi ENE 9.2 mph - N/A   Mostly Cloudy
1:53 PM 84.0 °F 89.6 °F 72.0 °F 67% 29.97 in 10.0 mi ENE 10.4 mph - N/A   Scattered Clouds
2:53 PM 84.9 °F 92.1 °F 73.9 °F 69% 29.94 in 10.0 mi ENE 9.2 mph - N/A   Clear
3:53 PM 84.9 °F 93.3 °F 75.0 °F 72% 29.93 in 10.0 mi ENE 10.4 mph - N/A   Clear
4:53 PM 82.9 °F 88.8 °F 73.0 °F 72% 29.94 in 10.0 mi East 9.2 mph - N/A   Scattered Clouds
5:53 PM 82.0 °F 87.9 °F 73.9 °F 76% 29.94 in 10.0 mi ESE 6.9 mph - N/A   Clear
6:53 PM 82.0 °F 87.4 °F 73.0 °F 74% 29.95 in 10.0 mi ESE 8.1 mph - N/A   Scattered Clouds
7:53 PM 81.0 °F 86.2 °F 73.9 °F 79% 29.97 in 10.0 mi SE 5.8 mph - N/A   Scattered Clouds
8:53 PM 81.0 °F 86.2 °F 73.9 °F 79% 29.98 in 10.0 mi SSE 5.8 mph - N/A   Scattered Clouds
9:53 PM 79.0 °F - 75.0 °F 88% 30.00 in 10.0 mi South 3.5 mph - N/A   Clear
10:53 PM 78.1 °F - 75.0 °F 90% 29.99 in 10.0 mi Calm Calm - N/A   Clear
11:53 PM 77.0 °F - 75.0 °F 94% 29.99 in 10.0 mi SSW 3.5 mph - N/A   Clear